Content
SEND FEEDBACK

Daily
Averages
Monthly
Summary
United States of America

PUT IN BAY, OHIO


Home > North America > United States > Ohio
Elevation: 561 feet     Latitude: 41 39N     Longitude: 082 48W

WEATHER
 
SELECT A DAY
Number of Records: 123,102;   Date Range: 12/10/00 - 9/19/14
 
SHARE

PRINT THIS DATA

[ ← Previous Day ]
WEATHER ALMANAC - JANUARY 16, 2014
[ Next Day → ]
[ °C ]   °F
Weather ElementAverageHighLow
Temperature23.3 °F27.7 °F (11:00 pm)19.9 °F (7:00 am)
Dewpoint19.2 °F25.7 °F (11:00 pm)13 °F (7:00 am)
Humidity83.9 %95 % (10:00 pm)66 % (7:00 am)
Barometer29.83 in29.98 in (1:00 am)29.70 in (11:00 pm)
Wind Speed14.6 mph18.4 mph (10:00 am)
Wind Gust25.3 mph (10:00 am)
Weather ElementAverage
Wind DirectionSSW (200.4 °)

Weather ElementTotal
Precipitation0.10 in
Heating Degree Days41.2 (Base 65)
Averaged from 27 records on January 16, 2014
WEATHER CONDITIONS BREAKOUT
WIND DIRECTION BREAKOUT
WEATHER BY HOUR - JANUARY 16, 2014
[ °C ]   °F
Local TimeTemperatureDewpointHumidityBarometerVisibilityWind DirectionWind SpeedGust SpeedPrecipitationEventsConditions
1:00 AM22.0 °F17.0 °F75 %29.98 inWSW (240°)8.1 mph
1:00 AM21.9 °F17.4 °F83 %29.98 inWSW (240°)8.1 mph
2:00 AM21.6 °F15.1 °F76 %29.96 inSW (230°)12.7 mph18.4 mph
3:00 AM20.8 °F13.8 °F74 %29.96 inSW (220°)11.5 mph
4:00 AM21.0 °F13.6 °F73 %29.94 inSW (220°)11.5 mph17.3 mph
5:00 AM21.0 °F13.6 °F73 %29.93 inSW (230°)12.7 mph20.7 mph
6:00 AM20.5 °F14.0 °F76 %29.90 inSW (220°)9.2 mph
7:00 AM20.0 °F13.0 °F66 %29.90 inSSW (210°)12.7 mph
7:00 AM19.9 °F13.5 °F76 %29.90 inSSW (210°)12.7 mph18.4 mph
8:00 AM20.1 °F14.2 °F78 %29.88 inSSW (200°)15.0 mph
9:00 AM20.8 °F15.4 °F80 %29.87 inSouth (190°)16.1 mph
10:00 AM21.7 °F15.6 °F77 %29.86 inSouth (190°)18.4 mph25.3 mph
11:00 AM23.5 °F16.5 °F75 %29.85 inSouth (190°)16.1 mph21.9 mph
12:00 PM24.8 °F17.8 °F75 %29.82 inSouth (190°)17.3 mph23.0 mph
1:00 PM23.0 °F21.0 °F91 %29.79 inSouth (190°)16.1 mph
1:00 PM23.4 °F21.4 °F92 %29.79 inSouth (190°)16.1 mph23.0 mph0.01 in
2:00 PM23.7 °F21.9 °F93 %29.75 inSouth (180°)18.4 mph24.2 mph0.01 in
3:00 PM24.6 °F22.8 °F93 %29.74 inSouth (180°)17.3 mph0.01 in
4:00 PM25.2 °F23.2 °F92 %29.73 inSouth (180°)17.3 mph
5:00 PM25.5 °F24.1 °F94 %29.73 inSouth (180°)17.3 mph0.02 in
6:00 PM25.7 °F24.3 °F94 %29.74 inSouth (180°)17.3 mph23.0 mph
7:00 PM26.0 °F24.0 °F91 %29.73 inSouth (190°)16.1 mph
7:00 PM26.1 °F24.4 °F94 %29.73 inSouth (190°)16.1 mph0.01 in
8:00 PM26.2 °F24.6 °F94 %29.73 inSouth (190°)16.1 mph24.2 mph0.01 in
9:00 PM26.4 °F25.0 °F94 %29.72 inSouth (190°)16.1 mph0.01 in
10:00 PM26.8 °F25.5 °F95 %29.72 inSouth (190°)13.8 mph19.6 mph0.01 in
11:00 PM27.7 °F25.7 °F92 %29.70 inSSW (200°)13.8 mph20.7 mph0.01 in
Hourly data recorded from CXHA, located miles away from Put In Bay, Ohio







STORIES FROM OUR PARTNERS